Regional Weather Roundup
Issued by NWS Albany, NY

Home | Current Version | Previous Version | Text Only | Print | Product List | Glossary On
Versions: 1 2 3 4 5 6 7 8 9 10 11 12 13 14 15 16 17 18 19 20 21 22 23 24 25 26 27
000
ASUS41 KALY 101410
RWRALY

NEW YORK STATE HOURLY WEATHER ROUNDUP
NATIONAL WEATHER SERVICE ALBANY NY
900 AM EST SAT DEC 10 2016

NOTE: "FAIR" INDICATES FEW OR NO CLOUDS BELOW 12,000 FEET WITH NO
SIGNIFICANT WEATHER AND/OR NO OBSTRUCTIONS TO VISIBILITY.

NYZ032-033-038>043-046>054-057>066-NYZ062>081-082-084-101500-
EAST


CITY           SKY/WX    TMP DP  RH WIND       PRES   REMARKS
ALBANY         MOSUNNY   22  12  65 NW9       30.37R WCI  12
GLENS FALLS    MOSUNNY   21   6  52 SE3       30.35R
POUGHKEEPSIE   CLOUDY    21  17  84 CALM      30.37R
NEWBURGH       PTSUNNY   25  19  80 W9        30.37R WCI  15
MONTGOMERY     CLOUDY    25  18  74 SW3       30.36R
WHITE PLAINS   MOSUNNY   29  14  53 NW15      30.36R WCI  18
ISLIP          MOSUNNY   30  18  60 W10       30.38R WCI  21
NEW YORK CITY  PTSUNNY   32  17  54 NW15      30.40R WCI  22
CENTRAL PARK   MOSUNNY   30  18  60 W8        30.41R WCI  22
$$

NYZ005>009-017-018-044>046-055-056-101500-
CENTRAL


CITY           SKY/WX    TMP DP  RH WIND       PRES   REMARKS
FULTON         LGT SNOW  21  16  81 E3        30.36R
SYRACUSE       FLURRIES  20  19  96 CALM      30.36R
ROME           CLOUDY    16  15  96 CALM      30.38R
ELMIRA         NOT AVBL
BINGHAMTON     NOT AVBL
MONTICELLO     MOSUNNY   18  16  93 W6        30.31R WCI   9
$$

NYZ026>034-041>043-087-101500-
NORTH


CITY           SKY/WX    TMP DP  RH WIND       PRES   REMARKS
WATERTOWN      SUNNY     15  13  91 CALM      30.36S
FORT DRUM      NOT AVBL
OGDENSBURG     FAIR      19  15  87 W5        30.37R WCI  12
MASSENA        CLOUDY    17  12  80 SW7       30.37R WCI   8
SARANAC LAKE   MOSUNNY   13   6  74 VRB3      30.21S
PLATTSBURGH    PTSUNNY   20   5  52 NW6       30.34R WCI  12
$$

NYZ001>004-010>016-019>021-085-101500-
WEST


CITY           SKY/WX    TMP DP  RH WIND       PRES   REMARKS
NIAGARA FALLS  FLURRIES  28  21  75 W8        30.34S WCI  20
BUFFALO        FLURRIES  26  20  77 W8        30.34R WCI  18
DUNKIRK        LGT SNOW  27  20  75 W9G21     30.36R VSB 1   WCI  18
JAMESTOWN      CLOUDY    19  16  86 SW9       30.29R WCI   9
WELLSVILLE     LGT SNOW  23  17  78 W8        30.26S VSB 1   WCI  14
ROCHESTER      LGT SNOW  24  21  88 SW5       30.36S FOG     WCI  18
PENN YAN       LGT SNOW  23  18  81 CALM      30.33S
$$

             KEY
       WCI = WIND CHILL INDEX
       VSB = VISIBILITY
       HX  = HEAT INDEX
$$




USA.gov is the U.S. government's official web portal to all federal, state and local government web resources and services.